TimeCST,TemperatureF,Dew PointF,Humidity,Sea Level PressureIn,VisibilityMPH,Wind Direction,Wind SpeedMPH,Gust SpeedMPH,PrecipitationIn,Events,Conditions,WindDirDegrees,DateUTC
12:26 AM,60.8,57.2,88,30.02,10.0,SSE,12.7,18.4,N/A,,Overcast,160,2013-02-04 06:26:00
12:53 AM,60.1,57.0,90,29.99,10.0,SSE,8.1,-,N/A,,Overcast,150,2013-02-04 06:53:00
1:53 AM,61.0,57.9,90,29.99,10.0,South,9.2,-,N/A,,Overcast,180,2013-02-04 07:53:00
2:53 AM,61.0,57.9,90,29.97,10.0,South,10.4,-,N/A,,Overcast,170,2013-02-04 08:53:00
3:04 AM,60.8,57.2,88,29.98,10.0,South,11.5,-,N/A,,Overcast,170,2013-02-04 09:04:00
4:53 AM,59.0,57.0,93,29.95,10.0,South,4.6,-,N/A,,Mostly Cloudy,170,2013-02-04 10:53:00
5:53 AM,59.0,57.0,93,29.95,10.0,Calm,Calm,-,N/A,,Overcast,0,2013-02-04 11:53:00
6:53 AM,59.0,57.0,93,29.93,10.0,ESE,4.6,-,N/A,,Overcast,120,2013-02-04 12:53:00
7:53 AM,59.0,57.0,93,29.94,10.0,Calm,Calm,-,N/A,,Mostly Cloudy,0,2013-02-04 13:53:00
8:53 AM,60.1,57.0,90,29.95,10.0,Calm,Calm,-,0.00,,Overcast,0,2013-02-04 14:53:00
9:53 AM,61.0,57.0,87,29.95,10.0,SE,5.8,-,N/A,,Overcast,130,2013-02-04 15:53:00
10:20 AM,62.6,57.2,82,29.95,10.0,SE,4.6,-,N/A,,Overcast,140,2013-02-04 16:20:00
10:53 AM,64.0,57.9,80,29.93,10.0,SE,9.2,-,N/A,,Mostly Cloudy,140,2013-02-04 16:53:00
11:33 AM,66.2,59.0,78,29.93,10.0,SSW,9.2,-,N/A,,Mostly Cloudy,200,2013-02-04 17:33:00
11:53 AM,69.1,57.9,68,29.90,10.0,SSE,12.7,19.6,N/A,,Overcast,160,2013-02-04 17:53:00
12:06 PM,69.8,59.0,68,29.91,10.0,SSW,6.9,-,N/A,,Overcast,210,2013-02-04 18:06:00
12:38 PM,69.8,57.2,64,29.90,10.0,Variable,6.9,16.1,N/A,,Overcast,0,2013-02-04 18:38:00
12:53 PM,71.1,57.9,63,29.88,10.0,WSW,6.9,-,N/A,,Overcast,240,2013-02-04 18:53:00
1:53 PM,73.0,57.9,59,29.84,10.0,WSW,8.1,-,N/A,,Overcast,250,2013-02-04 19:53:00
2:36 PM,-9999,-9999,N/A,29.83,1.8,SW,8.1,-,N/A,,Partly Cloudy,230,2013-02-04 20:36:00
2:45 PM,75.2,57.2,53,29.83,5.0,SW,8.1,-,N/A,,Haze,230,2013-02-04 20:45:00
2:53 PM,75.0,57.0,53,29.81,10.0,Calm,Calm,-,N/A,,Partly Cloudy,0,2013-02-04 20:53:00
3:53 PM,75.9,55.9,50,29.79,10.0,Calm,Calm,-,N/A,,Clear,0,2013-02-04 21:53:00
4:53 PM,75.9,55.0,48,29.78,10.0,WSW,4.6,-,N/A,,Clear,250,2013-02-04 22:53:00
5:53 PM,73.0,53.1,49,29.80,10.0,Calm,Calm,-,N/A,,Clear,0,2013-02-04 23:53:00
6:53 PM,68.0,53.1,59,29.82,10.0,North,-9999.0,-,N/A,,Clear,0,2013-02-05 00:53:00
7:53 PM,64.0,53.1,67,29.84,10.0,Calm,Calm,-,N/A,,Clear,0,2013-02-05 01:53:00
8:53 PM,59.0,52.0,78,29.86,10.0,Calm,Calm,-,N/A,,Clear,0,2013-02-05 02:53:00
9:53 PM,59.0,53.1,81,29.86,10.0,North,-9999.0,-,N/A,,Clear,0,2013-02-05 03:53:00
10:53 PM,55.9,51.1,84,29.87,10.0,North,-9999.0,-,N/A,,Clear,0,2013-02-05 04:53:00
11:53 PM,53.1,50.0,89,29.88,10.0,North,-9999.0,-,N/A,,Clear,0,2013-02-05 05:53:00